Back to catalog

BREEZE-M DEB

LostHEO
NORAD 34245·DEBRIS·🇷🇺 Russia

Launched Feb 28, 2006 from Baikonur Cosmodrome

Loading…

Next Passes (next 24 hours)

TLE

StaleSource: Space-Track

Epoch: Mar 27, 2013, 12:29 UTC

1 34245U 06006BL  13086.52047182 +.00010787 +00000-0 +32032-2 0  9992
2 34245 052.4730 314.0366 4840743 006.2452 085.3224 05.83030499105633

Track BREEZE-M DEB in real time with AllMySat

Download on the App Store